STARLINK-2406 (47821 NORAD) Tracking and Keplerian Element Data

This shows tracking and keplerian element data for the satellite.

Feedback or suggestion? Click here.




ElementValue
Catalog47821
NameSTARLINK-2406
Epoch Orbit1670
Epoch Day170.41746535
Epoch Year2021
RAAN72.1658
Inclination53.0566
Eccentricity0.0001846
Argument of Perigee87.9485
Mean Anonmoly272.1715
Mean Motion15.063938
Decay Rate-8.83E-06
L11 47821U 21018AL 21170.41746535 -.00000883 00000-0 -40379-4 0 9998
L22 47821 53.0566 72.1658 0001846 87.9485 272.1715 15.06393800 16702

Live tracking and technical data element details for STARLINK-2406 (NORAD 47821). STARLINK-2406 can be tracked NOW for your location showing map with azimuth and elevation plus other details from your city location.

Track the satellite on the map from your city or location and see movement details for azimuth, elevation, latitude, longitude, range, height, and movement on the map or in text.







IsCatalogInMostPopularTable: catalog: 47821, numindb: 47
Update: records affected: 1



GetName: 47821 STARLINK-2406

Hit Count: updated at: Mon, 21 Jun 2021 05:00:20 GMT